sat.trackr.live / text

‹ back to catalog

CAS500-2 RIDESHARE OBJE*

NORAD 69002 · 2026-100Y

PAYLOAD ACTIVE UNKNOWN

§ Identity

Operator
Country
TBD
Launch date
2026-05-03
Launch site
AFWTR
Launch vehicle
Mass (kg)
RCS (m²)

External: N2YO · Heavens-Above · Gunter

§ Orbital elements

Epoch: 2026-05-25T01:18:41.556096Z

Period
96.48 min
Inclination
97.7378°
Eccentricity
0.0003470
Mean motion
14.92524713 rev/d
Perigee alt
587.6 km
Apogee alt
592.5 km
Semi-major
6,968.2 km
B*
1.9518e-4
RAAN
42.9663°
Arg perigee
72.4186°
Mean anomaly
287.7412°
Rev number
324

§ Raw data

CAS500-2 RIDESHARE OBJE*1 69002U 26100Y   26145.05464764  .00001949  00000+0  19518-3 0  99992 69002  97.7378  42.9663 0003470  72.4186 287.7412 14.92524713  3240

JSON: /api/v1/satellites/69002 · /tle

For live sub-satellite position, see the globe view (requires WebGL).

§ Visibility from observer

Set your observer location to see the next 7 days of passes ≥ 10°. The values pass through the URL so the page stays shareable.

No JS? Fill the form by hand. The geolocation button needs JavaScript.